AAL1495 KCLT-KMIA

Flight info

Callsign AAL1495
Flight time 1h 22m
Altitude 40000
Route ICONS5 NOOKS WURFL Q83 JEVED Q97 DEBRL CSTAL3
Aircraft B772/H-SDE2E3FGHIJ5LORVWXY/LB1D1

Departure

Time 2026-05-06 06:02
Airport Charlotte Douglas International Airport (KCLT)

Arrival

Time 2026-05-06 07:25
Airport Miami International Airport (KMIA)
Time Latitude Longitude Altitude Speed Heading
2026-05-06 05:40 35.21788 -80.94464 763 ft 0 kts 285°
2026-05-06 05:52 35.21786 -80.94453 763 ft 2 kts 285°
2026-05-06 05:52 35.21783 -80.94441 763 ft 0 kts 285°
2026-05-06 05:53 35.21780 -80.94424 763 ft 2 kts 270°
2026-05-06 05:53 35.21782 -80.94406 763 ft 2 kts 251°
2026-05-06 05:53 35.21788 -80.94389 763 ft 2 kts 234°
2026-05-06 05:53 35.21798 -80.94376 763 ft 2 kts 217°
2026-05-06 05:54 35.21811 -80.94366 763 ft 2 kts 199°
2026-05-06 05:54 35.21826 -80.94363 763 ft 2 kts 182°
2026-05-06 05:54 35.21841 -80.94364 763 ft 1 kts 165°
2026-05-06 05:54 35.21847 -80.94366 763 ft 0 kts 160°
2026-05-06 05:56 35.21801 -80.94351 763 ft 17 kts 171°
2026-05-06 05:56 35.21668 -80.94380 763 ft 21 kts 224°
2026-05-06 05:57 35.21582 -80.94523 763 ft 19 kts 213°
2026-05-06 05:57 35.21481 -80.94469 763 ft 16 kts 153°
2026-05-06 05:57 35.21379 -80.94528 763 ft 17 kts 227°
2026-05-06 05:57 35.21321 -80.94661 763 ft 18 kts 251°
2026-05-06 05:58 35.21269 -80.94804 763 ft 18 kts 230°
2026-05-06 05:58 35.21319 -80.94902 763 ft 18 kts 353°
2026-05-06 05:58 35.21453 -80.94915 763 ft 19 kts 357°
2026-05-06 05:58 35.21585 -80.94947 763 ft 19 kts 305°
2026-05-06 05:59 35.21697 -80.95024 763 ft 20 kts 354°
2026-05-06 05:59 35.21842 -80.95037 763 ft 21 kts 355°
2026-05-06 05:59 35.21997 -80.95051 763 ft 22 kts 355°
2026-05-06 05:59 35.22161 -80.95066 763 ft 24 kts 355°
2026-05-06 06:00 35.22333 -80.95082 763 ft 25 kts 355°
2026-05-06 06:00 35.22512 -80.95096 763 ft 26 kts 357°
2026-05-06 06:00 35.22686 -80.95113 763 ft 12 kts 348°
2026-05-06 06:00 35.22729 -80.95205 763 ft 14 kts 272°
2026-05-06 06:01 35.22714 -80.95293 763 ft 7 kts 225°
2026-05-06 06:01 35.22636 -80.95307 763 ft 26 kts 178°
2026-05-06 06:01 35.22245 -80.95273 763 ft 84 kts 176°
2026-05-06 06:01 35.21503 -80.95216 763 ft 129 kts 175°
2026-05-06 06:02 35.20533 -80.95133 981 ft 136 kts 176°
2026-05-06 06:02 35.19720 -80.95049 1134 ft 116 kts 178°
2026-05-06 06:02 35.18848 -80.94930 1749 ft 126 kts 170°
2026-05-06 06:02 35.18100 -80.94836 2321 ft 112 kts 186°
2026-05-06 06:03 35.17254 -80.94880 2422 ft 131 kts 186°
2026-05-06 06:03 35.16279 -80.94931 2525 ft 152 kts 185°
2026-05-06 06:03 35.15145 -80.94989 2708 ft 171 kts 185°
2026-05-06 06:03 35.13865 -80.95054 2941 ft 193 kts 185°
2026-05-06 06:04 35.12450 -80.95126 3341 ft 211 kts 186°
2026-05-06 06:04 35.10925 -80.95203 3714 ft 231 kts 186°
2026-05-06 06:04 35.09271 -80.95285 4300 ft 242 kts 186°
2026-05-06 06:04 35.07571 -80.95368 5035 ft 248 kts 186°
2026-05-06 06:05 35.05859 -80.95451 5777 ft 251 kts 187°
2026-05-06 06:05 35.04104 -80.95536 6470 ft 255 kts 187°
2026-05-06 06:05 35.02301 -80.95624 7076 ft 263 kts 187°
2026-05-06 06:05 35.00472 -80.95713 7765 ft 266 kts 188°
2026-05-06 06:06 34.98604 -80.95804 8374 ft 271 kts 188°
2026-05-06 06:06 34.96687 -80.95898 8899 ft 279 kts 188°
2026-05-06 06:06 34.94716 -80.95993 9470 ft 284 kts 188°
2026-05-06 06:06 34.92729 -80.96088 10079 ft 288 kts 188°
2026-05-06 06:07 34.90674 -80.96189 10412 ft 303 kts 187°
2026-05-06 06:07 34.88506 -80.96297 10672 ft 321 kts 187°
2026-05-06 06:07 34.86202 -80.96410 10959 ft 339 kts 187°
2026-05-06 06:07 34.83806 -80.96523 11310 ft 356 kts 186°
2026-05-06 06:08 34.81266 -80.96637 11674 ft 372 kts 186°
2026-05-06 06:08 34.78640 -80.96739 12257 ft 382 kts 185°
2026-05-06 06:08 34.75953 -80.96824 13044 ft 388 kts 185°
2026-05-06 06:08 34.73286 -80.96907 13936 ft 391 kts 185°
2026-05-06 06:09 34.70551 -80.96993 14774 ft 398 kts 186°
2026-05-06 06:09 34.67738 -80.97083 15698 ft 403 kts 186°
2026-05-06 06:09 34.64910 -80.97172 16633 ft 408 kts 186°
2026-05-06 06:09 34.62095 -80.97260 17542 ft 413 kts 187°
2026-05-06 06:10 34.59222 -80.97452 18437 ft 416 kts 189°
2026-05-06 06:10 34.56317 -80.97744 19318 ft 422 kts 190°
2026-05-06 06:10 34.53380 -80.98038 20239 ft 426 kts 190°
2026-05-06 06:10 34.50429 -80.98328 21087 ft 432 kts 190°
2026-05-06 06:11 34.47421 -80.98619 21893 ft 438 kts 190°
2026-05-06 06:11 34.44376 -80.98910 22736 ft 442 kts 190°
2026-05-06 06:11 34.41295 -80.99204 23445 ft 449 kts 190°
2026-05-06 06:11 34.38120 -80.99506 24135 ft 457 kts 190°
2026-05-06 06:12 34.34900 -80.99809 24835 ft 465 kts 191°
2026-05-06 06:12 34.31690 -81.00111 25542 ft 471 kts 191°
2026-05-06 06:12 34.28398 -81.00420 26242 ft 477 kts 191°
2026-05-06 06:12 34.25064 -81.00733 26841 ft 485 kts 192°
2026-05-06 06:13 34.21667 -81.01051 27421 ft 492 kts 192°
2026-05-06 06:13 34.18223 -81.01374 27965 ft 500 kts 192°
2026-05-06 06:13 34.14776 -81.01695 28571 ft 505 kts 193°
2026-05-06 06:13 34.11260 -81.02022 29196 ft 510 kts 193°
2026-05-06 06:14 34.07701 -81.02351 29860 ft 513 kts 193°
2026-05-06 06:14 34.04105 -81.02685 30551 ft 515 kts 193°
2026-05-06 06:14 34.00489 -81.03019 31282 ft 516 kts 193°
2026-05-06 06:14 33.96944 -81.03336 32124 ft 516 kts 192°
2026-05-06 06:15 33.93332 -81.03367 33118 ft 515 kts 188°
2026-05-06 06:15 33.89769 -81.03294 33951 ft 515 kts 188°
2026-05-06 06:15 33.86125 -81.03223 34533 ft 519 kts 188°
2026-05-06 06:15 33.82535 -81.03162 35277 ft 519 kts 189°
2026-05-06 06:16 33.78925 -81.03105 36107 ft 516 kts 189°
2026-05-06 06:16 33.75337 -81.03054 36881 ft 514 kts 189°
2026-05-06 06:16 33.71809 -81.03009 37535 ft 513 kts 189°
2026-05-06 06:16 33.68218 -81.02968 38037 ft 514 kts 189°
2026-05-06 06:17 33.64634 -81.02929 38548 ft 515 kts 189°
2026-05-06 06:17 33.61071 -81.02890 39149 ft 513 kts 190°
2026-05-06 06:17 33.57492 -81.02853 39744 ft 512 kts 190°
2026-05-06 06:17 33.53960 -81.02818 40069 ft 514 kts 190°
2026-05-06 06:18 33.46802 -81.02749 40053 ft 511 kts 190°
2026-05-06 06:18 33.39716 -81.02682 40038 ft 511 kts 190°
2026-05-06 06:19 33.32586 -81.02617 40047 ft 513 kts 190°
2026-05-06 06:19 33.25444 -81.02550 40051 ft 511 kts 191°
2026-05-06 06:20 33.18326 -81.02484 40047 ft 512 kts 191°
2026-05-06 06:20 33.11213 -81.02420 40050 ft 513 kts 191°
2026-05-06 06:21 33.04086 -81.02354 40060 ft 512 kts 191°
2026-05-06 06:21 32.96966 -81.02292 40057 ft 517 kts 191°
2026-05-06 06:22 32.89801 -81.02226 40060 ft 514 kts 191°
2026-05-06 06:22 32.82608 -81.02160 40044 ft 516 kts 191°
2026-05-06 06:23 32.75475 -81.02095 40044 ft 516 kts 190°
2026-05-06 06:23 32.68290 -81.02029 40052 ft 515 kts 190°
2026-05-06 06:24 32.61076 -81.01965 40045 ft 517 kts 190°
2026-05-06 06:24 32.53898 -81.01900 40053 ft 517 kts 190°
2026-05-06 06:25 32.46756 -81.01964 40055 ft 515 kts 192°
2026-05-06 06:26 32.35989 -81.02177 40056 ft 515 kts 192°
2026-05-06 06:26 32.28804 -81.02311 40058 ft 513 kts 192°
2026-05-06 06:27 32.21661 -81.02442 40062 ft 516 kts 192°
2026-05-06 06:27 32.14475 -81.02572 40063 ft 516 kts 192°
2026-05-06 06:28 32.07285 -81.02699 40061 ft 516 kts 191°
2026-05-06 06:28 32.00099 -81.02827 40059 ft 517 kts 191°
2026-05-06 06:29 31.92926 -81.03010 40063 ft 517 kts 192°
2026-05-06 06:29 31.85759 -81.03210 40043 ft 515 kts 192°
2026-05-06 06:30 31.78564 -81.03411 40038 ft 517 kts 192°
2026-05-06 06:30 31.71385 -81.03609 40044 ft 519 kts 192°
2026-05-06 06:31 31.64151 -81.03806 40045 ft 518 kts 192°
2026-05-06 06:31 31.56984 -81.04014 40042 ft 516 kts 193°
2026-05-06 06:32 31.49843 -81.04479 40051 ft 517 kts 194°
2026-05-06 06:32 31.42626 -81.04963 40049 ft 516 kts 194°
2026-05-06 06:33 31.35476 -81.05434 40052 ft 516 kts 194°
2026-05-06 06:33 31.28305 -81.05900 40053 ft 515 kts 194°
2026-05-06 06:34 31.21079 -81.06267 40054 ft 522 kts 191°
2026-05-06 06:34 31.13820 -81.06391 40054 ft 523 kts 191°
2026-05-06 06:35 31.06591 -81.06520 40054 ft 520 kts 191°
2026-05-06 06:35 31.00142 -81.06644 40057 ft 521 kts 191°
2026-05-06 06:36 30.92909 -81.06786 40057 ft 520 kts 191°
2026-05-06 06:36 30.85628 -81.06935 40041 ft 522 kts 191°
2026-05-06 06:37 30.78371 -81.07083 40043 ft 524 kts 191°
2026-05-06 06:37 30.71071 -81.07230 40044 ft 521 kts 191°
2026-05-06 06:38 30.63804 -81.07377 40045 ft 519 kts 191°
2026-05-06 06:38 30.56591 -81.07709 40047 ft 519 kts 193°
2026-05-06 06:39 30.49408 -81.08167 40049 ft 517 kts 193°
2026-05-06 06:39 30.42216 -81.08614 40054 ft 517 kts 193°
2026-05-06 06:40 30.35008 -81.09056 40056 ft 517 kts 193°
2026-05-06 06:40 30.27829 -81.09493 40051 ft 519 kts 192°
2026-05-06 06:41 30.20644 -81.09924 40058 ft 516 kts 193°
2026-05-06 06:41 30.13441 -81.10356 40050 ft 514 kts 192°
2026-05-06 06:42 30.06272 -81.10788 40056 ft 520 kts 192°
2026-05-06 06:42 29.99034 -81.11217 40058 ft 515 kts 192°
2026-05-06 06:43 29.91889 -81.11644 40061 ft 518 kts 192°
2026-05-06 06:43 29.85179 -81.12044 40044 ft 517 kts 192°
2026-05-06 06:44 29.80242 -81.12321 40042 ft 516 kts 190°
2026-05-06 06:44 29.73039 -81.12356 40042 ft 517 kts 188°
2026-05-06 06:45 29.65762 -81.12365 40046 ft 521 kts 189°
2026-05-06 06:45 29.58548 -81.12382 40056 ft 518 kts 189°
2026-05-06 06:46 29.51356 -81.12563 40058 ft 518 kts 191°
2026-05-06 06:46 29.44168 -81.12847 40067 ft 514 kts 191°
2026-05-06 06:47 29.37038 -81.13126 40066 ft 517 kts 191°
2026-05-06 06:47 29.29796 -81.12971 40063 ft 528 kts 179°
2026-05-06 06:48 29.22616 -81.10806 40069 ft 540 kts 167°
2026-05-06 06:48 29.15446 -81.08102 40071 ft 540 kts 167°
2026-05-06 06:49 29.08337 -81.05424 40072 ft 537 kts 167°
2026-05-06 06:49 29.01239 -81.02763 40073 ft 540 kts 167°
2026-05-06 06:50 28.94091 -81.00088 40066 ft 537 kts 167°
2026-05-06 06:50 28.86974 -80.97433 40043 ft 543 kts 167°
2026-05-06 06:51 28.79836 -80.94774 40044 ft 538 kts 167°
2026-05-06 06:51 28.72743 -80.91966 40052 ft 541 kts 162°
2026-05-06 06:52 28.65831 -80.88600 40049 ft 544 kts 160°
2026-05-06 06:52 28.58876 -80.85227 40054 ft 541 kts 161°
2026-05-06 06:53 28.51944 -80.81896 40055 ft 542 kts 161°
2026-05-06 06:53 28.45002 -80.78580 40056 ft 541 kts 161°
2026-05-06 06:54 28.38043 -80.75269 40055 ft 542 kts 161°
2026-05-06 06:54 28.31075 -80.71963 40061 ft 542 kts 161°
2026-05-06 06:55 28.24117 -80.68668 40064 ft 542 kts 161°
2026-05-06 06:55 28.17020 -80.66003 40060 ft 536 kts 170°
2026-05-06 06:56 28.09837 -80.63849 40070 ft 534 kts 169°
2026-05-06 06:56 28.02577 -80.61679 40071 ft 537 kts 169°
2026-05-06 06:57 27.95398 -80.59531 39808 ft 529 kts 169°
2026-05-06 06:57 27.91860 -80.58474 38768 ft 533 kts 169°
2026-05-06 06:57 27.88252 -80.57398 37862 ft 535 kts 169°
2026-05-06 06:57 27.84659 -80.56325 37064 ft 535 kts 169°
2026-05-06 06:58 27.81062 -80.55252 36273 ft 535 kts 169°
2026-05-06 06:58 27.77447 -80.54174 35441 ft 536 kts 169°
2026-05-06 06:58 27.73878 -80.53110 34615 ft 536 kts 169°
2026-05-06 06:58 27.70250 -80.52029 33735 ft 536 kts 169°
2026-05-06 06:59 27.66651 -80.50958 32849 ft 537 kts 168°
2026-05-06 06:59 27.63033 -80.49794 31994 ft 540 kts 164°
2026-05-06 06:59 27.59510 -80.48389 31047 ft 544 kts 162°
2026-05-06 06:59 27.55981 -80.46948 30338 ft 540 kts 162°
2026-05-06 07:00 27.52453 -80.45515 29788 ft 533 kts 163°
2026-05-06 07:00 27.48966 -80.44106 29176 ft 528 kts 163°
2026-05-06 07:00 27.45531 -80.42727 28529 ft 523 kts 162°
2026-05-06 07:00 27.42128 -80.41367 27885 ft 518 kts 163°
2026-05-06 07:01 27.38760 -80.40024 27252 ft 514 kts 163°
2026-05-06 07:01 27.35383 -80.38682 26624 ft 509 kts 162°
2026-05-06 07:01 27.32066 -80.37366 26017 ft 504 kts 162°
2026-05-06 07:01 27.28751 -80.36053 25408 ft 499 kts 162°
2026-05-06 07:02 27.25482 -80.34762 24803 ft 495 kts 163°
2026-05-06 07:02 27.22252 -80.33487 24197 ft 491 kts 163°
2026-05-06 07:02 27.19032 -80.32222 23653 ft 485 kts 163°
2026-05-06 07:02 27.15878 -80.30995 23265 ft 476 kts 163°
2026-05-06 07:03 27.12794 -80.29797 22876 ft 468 kts 163°
2026-05-06 07:03 27.09732 -80.28608 22472 ft 465 kts 163°
2026-05-06 07:03 27.06647 -80.27412 22075 ft 467 kts 163°
2026-05-06 07:03 27.03596 -80.26229 21670 ft 464 kts 162°
2026-05-06 07:04 27.00542 -80.25046 21256 ft 458 kts 162°
2026-05-06 07:04 26.97549 -80.23886 20842 ft 453 kts 162°
2026-05-06 07:04 26.94577 -80.22736 20436 ft 448 kts 162°
2026-05-06 07:04 26.91653 -80.21604 20039 ft 444 kts 162°
2026-05-06 07:05 26.88741 -80.20478 19616 ft 441 kts 162°
2026-05-06 07:05 26.85811 -80.19346 19218 ft 437 kts 162°
2026-05-06 07:05 26.82970 -80.18283 18835 ft 433 kts 163°
2026-05-06 07:05 26.80083 -80.17216 18429 ft 425 kts 163°
2026-05-06 07:06 26.77311 -80.16190 18059 ft 418 kts 163°
2026-05-06 07:06 26.74567 -80.15176 17685 ft 412 kts 163°
2026-05-06 07:06 26.71864 -80.14176 17291 ft 406 kts 163°
2026-05-06 07:06 26.69166 -80.13256 16912 ft 398 kts 167°
2026-05-06 07:07 26.66483 -80.12550 16560 ft 392 kts 169°
2026-05-06 07:07 26.63825 -80.11860 16208 ft 386 kts 168°
2026-05-06 07:07 26.61208 -80.11173 15859 ft 381 kts 168°
2026-05-06 07:07 26.58627 -80.10500 15519 ft 375 kts 169°
2026-05-06 07:08 26.56079 -80.09875 15187 ft 372 kts 169°
2026-05-06 07:08 26.53562 -80.09261 14854 ft 374 kts 169°
2026-05-06 07:08 26.50992 -80.08628 14510 ft 372 kts 169°
2026-05-06 07:08 26.48476 -80.08005 14176 ft 368 kts 169°
2026-05-06 07:09 26.45977 -80.07385 13848 ft 365 kts 169°
2026-05-06 07:09 26.43491 -80.06831 13523 ft 362 kts 171°
2026-05-06 07:09 26.41005 -80.06317 13198 ft 360 kts 171°
2026-05-06 07:09 26.38557 -80.05798 12890 ft 358 kts 169°
2026-05-06 07:10 26.36167 -80.05151 12751 ft 347 kts 167°
2026-05-06 07:10 26.33878 -80.04503 12571 ft 328 kts 167°
2026-05-06 07:10 26.31667 -80.03883 12540 ft 324 kts 168°
2026-05-06 07:10 26.29472 -80.03276 12393 ft 323 kts 168°
2026-05-06 07:11 26.27313 -80.02683 12246 ft 319 kts 168°
2026-05-06 07:11 26.25139 -80.02406 12102 ft 314 kts 186°
2026-05-06 07:11 26.22960 -80.02742 11978 ft 313 kts 193°
2026-05-06 07:11 26.20841 -80.03212 11848 ft 312 kts 194°
2026-05-06 07:12 26.18681 -80.03711 11716 ft 310 kts 194°
2026-05-06 07:12 26.16562 -80.04198 11584 ft 310 kts 194°
2026-05-06 07:12 26.14454 -80.04682 11458 ft 310 kts 194°
2026-05-06 07:12 26.12338 -80.05166 11329 ft 309 kts 194°
2026-05-06 07:13 26.10244 -80.05643 11199 ft 307 kts 194°
2026-05-06 07:13 26.08121 -80.06128 11070 ft 307 kts 194°
2026-05-06 07:13 26.06049 -80.06608 10932 ft 307 kts 195°
2026-05-06 07:13 26.03937 -80.07159 10687 ft 307 kts 196°
2026-05-06 07:14 26.01866 -80.07709 10435 ft 304 kts 195°
2026-05-06 07:14 25.99803 -80.08250 10197 ft 300 kts 196°
2026-05-06 07:14 25.97780 -80.08777 9960 ft 296 kts 195°
2026-05-06 07:14 25.95788 -80.09295 9677 ft 294 kts 195°
2026-05-06 07:15 25.93776 -80.09827 9380 ft 292 kts 198°
2026-05-06 07:15 25.92006 -80.10846 9092 ft 285 kts 221°
2026-05-06 07:15 25.90580 -80.12336 8859 ft 279 kts 229°
2026-05-06 07:15 25.89255 -80.13921 8626 ft 276 kts 231°
2026-05-06 07:16 25.88260 -80.15672 8385 ft 268 kts 253°
2026-05-06 07:16 25.87940 -80.17698 8167 ft 267 kts 267°
2026-05-06 07:16 25.87847 -80.19785 7937 ft 269 kts 269°
2026-05-06 07:16 25.87776 -80.21882 7617 ft 271 kts 269°
2026-05-06 07:17 25.87706 -80.23965 7281 ft 272 kts 269°
2026-05-06 07:17 25.87638 -80.26067 6952 ft 272 kts 269°
2026-05-06 07:17 25.87571 -80.28156 6631 ft 272 kts 269°
2026-05-06 07:17 25.87503 -80.30264 6308 ft 272 kts 269°
2026-05-06 07:18 25.87436 -80.32333 5992 ft 271 kts 269°
2026-05-06 07:18 25.87367 -80.34438 5668 ft 271 kts 269°
2026-05-06 07:18 25.87299 -80.36530 5347 ft 271 kts 269°
2026-05-06 07:18 25.87230 -80.38628 5025 ft 270 kts 269°
2026-05-06 07:19 25.87123 -80.40695 4733 ft 269 kts 266°
2026-05-06 07:19 25.86975 -80.42739 4603 ft 261 kts 266°
2026-05-06 07:19 25.86836 -80.44717 4580 ft 249 kts 267°
2026-05-06 07:19 25.86696 -80.46596 4566 ft 238 kts 262°
2026-05-06 07:20 25.86105 -80.48261 4411 ft 234 kts 234°
2026-05-06 07:20 25.84886 -80.49429 4128 ft 235 kts 206°
2026-05-06 07:20 25.83288 -80.49827 3802 ft 237 kts 176°
2026-05-06 07:20 25.81718 -80.49332 3470 ft 237 kts 147°
2026-05-06 07:21 25.80554 -80.48070 3141 ft 236 kts 119°
2026-05-06 07:21 25.80044 -80.46365 2827 ft 235 kts 100°
2026-05-06 07:21 25.79703 -80.44627 2527 ft 221 kts 98°
2026-05-06 07:21 25.79565 -80.43030 2264 ft 199 kts 90°
2026-05-06 07:22 25.79604 -80.41547 2034 ft 182 kts 86°
2026-05-06 07:22 25.79662 -80.40198 1802 ft 171 kts 86°
2026-05-06 07:22 25.79710 -80.38942 1564 ft 153 kts 86°
2026-05-06 07:22 25.79755 -80.37815 1409 ft 140 kts 86°
2026-05-06 07:23 25.79798 -80.36755 1212 ft 131 kts 86°
2026-05-06 07:23 25.79837 -80.35788 1045 ft 126 kts 86°
2026-05-06 07:23 25.79879 -80.34792 866 ft 128 kts 86°
2026-05-06 07:23 25.79920 -80.33798 687 ft 127 kts 86°
2026-05-06 07:24 25.79961 -80.32830 516 ft 127 kts 86°
2026-05-06 07:24 25.80002 -80.31843 341 ft 127 kts 86°
2026-05-06 07:24 25.80044 -80.30849 168 ft 126 kts 86°
2026-05-06 07:24 25.80080 -80.29863 27 ft 126 kts 87°
2026-05-06 07:25 25.80115 -80.29039 20 ft 82 kts 88°
2026-05-06 07:25 25.80134 -80.28611 20 ft 26 kts 87°
2026-05-06 07:25 25.80140 -80.28462 20 ft 19 kts 88°
2026-05-06 07:25 25.80128 -80.28310 20 ft 19 kts 103°
2026-05-06 07:26 25.80059 -80.28183 20 ft 19 kts 144°
2026-05-06 07:26 25.79966 -80.28078 20 ft 19 kts 99°
2026-05-06 07:26 25.79975 -80.27924 20 ft 19 kts 85°
2026-05-06 07:26 25.79956 -80.27782 20 ft 19 kts 138°
2026-05-06 07:27 25.79895 -80.27689 20 ft 10 kts 98°
2026-05-06 07:27 25.79895 -80.27601 20 ft 12 kts 86°
2026-05-06 07:27 25.79885 -80.27543 20 ft 6 kts 141°
2026-05-06 07:27 25.79835 -80.27532 20 ft 8 kts 176°
2026-05-06 07:28 25.79801 -80.27531 20 ft 0 kts 176°